This demonstration page uses our WeatherBlox Daily Observations layout. Learn more.

Left ArrowRight Arrow

Hourly Observations for June 7, 2021

Temp ( °F °C ) Dew Point ( °F °C ) Humidity (%) Winds ( mph kmh ) Pressure ( in mb ) Visibility ( mi km ) Precip ( " mm )
12:53 am 00:53 Clear 69 20.6 68 20 96 96 N N/A 30.05 1018 10 16 N/A
1:53 am 01:53 Cloudy 69 20.6 68 20 96 96 N N/A 30.04 1017 10 16 N/A
2:53 am 02:53 Mostly Cloudy 69 20.6 67 19.4 93 93 E 3 6 30.02 1017 10 16 N/A
3:53 am 03:53 Clear 69 20.6 67 19.4 93 93 ESE 5 7 30.01 1016 10 16 N/A
4:53 am 04:53 Clear 68 20 66 18.9 93 93 N N/A 30.00 1016 10 16 N/A
5:53 am 05:53 Cloudy 68 20 67 19.4 96 96 N N/A 30.01 1016 10 16 N/A
6:41 am 06:41 Cloudy with Heavy Rain 69 20.6 68 20 96 96 N N/A 30.03 1017 2 3 0.08 2.03
6:49 am 06:49 Cloudy with Heavy Rain 70 21 68 20 94 94 N N/A 30.03 1017 1 2 0.15 3.81
6:53 am 06:53 Cloudy with Heavy Rain 69 20.6 68 20 96 96 S 5 7 30.04 1017 1 2 0.19 4.83
7:00 am 07:00 Cloudy with Strong Thunderstorms 69 20.6 68 20 96 96 N N/A 30.04 1017 1 1 0.23 5.84
7:20 am 07:20 Cloudy with Heavy Rain 69 20.6 68 20 96 96 VRB 3 6 30.05 1018 1 1 0.79 20.07
7:32 am 07:32 Cloudy with Rain 69 20.6 68 20 96 96 N N/A 30.05 1018 2 3 0.90 22.86
7:39 am 07:39 Cloudy with Rain 69 20.6 68 20 96 96 N N/A 30.05 1018 2 3 0.93 23.62
7:53 am 07:53 Cloudy with Rain 69 20.6 69 20.6 100 100 E 3 6 30.05 1018 3 5 0.96 24.38
8:53 am 08:53 Cloudy with Light Rain 71 21.7 69 20.6 94 94 ESE 3 6 30.05 1018 10 16 0.01 0.25
9:13 am 09:13 Cloudy 72 22.2 70 21.1 94 94 E 5 7 30.05 1018 10 16 0.00 0.00
9:32 am 09:32 Mostly Cloudy 73 22.8 70 21.1 90 90 ESE 3 6 30.04 1017 10 16 0.00 0.00
9:40 am 09:40 Mostly Cloudy 73 22.8 70 21.1 90 90 N N/A 30.05 1018 10 16 0.00 0.00
9:53 am 09:53 Mostly Cloudy 73 22.8 70 21.1 90 90 N N/A 30.05 1018 10 16 0.00 0.00
10:16 am 10:16 Mostly Cloudy 73 22.8 70 21.1 90 90 SSE 3 6 30.04 1017 10 16 N/A
10:32 am 10:32 Mostly Cloudy 75 23.9 71 21.7 88 88 VRB 6 9 30.04 1017 10 16 N/A
10:53 am 10:53 Partly Cloudy 76 24.4 71 21.7 85 85 VRB 6 9 30.05 1018 10 16 N/A
11:44 am 11:44 Mostly Cloudy 77 25 71 21.7 82 82 undefined N/A 30.03 1017 10 16 N/A
11:53 am 11:53 Mostly Cloudy 76 24.4 70 21.1 82 82 VRB 6 9 30.05 1018 10 16 N/A
12:39 pm 12:39 Mostly Cloudy 79 26.1 70 21.1 74 74 SW 8 13 30.02 1017 10 16 N/A
12:53 pm 12:53 Mostly Cloudy 80 26.7 70 21.1 71 71 VRB 5 7 30.04 1017 10 16 N/A
1:53 pm 13:53 Partly Cloudy 81 27.2 68 20 65 65 SW 9 15 30.03 1017 10 16 N/A
2:53 pm 14:53 Mostly Sunny 82 27.8 68 20 63 63 VRB 6 9 30.02 1017 10 16 N/A
3:53 pm 15:53 Partly Cloudy 83 28.3 69 20.6 63 63 N N/A 30.00 1016 10 16 N/A
4:53 pm 16:53 Cloudy 81 27.2 69 20.6 67 67 VRB 5 7 29.99 1016 10 16 N/A
5:53 pm 17:53 Mostly Cloudy 80 26.7 69 20.6 69 69 S 5 7 29.98 1015 10 16 N/A
6:53 pm 18:53 Partly Cloudy 80 26.7 68 20 67 67 VRB 3 6 29.98 1015 10 16 N/A
7:53 pm 19:53 Partly Cloudy 80 26.7 69 20.6 69 69 VRB 3 6 29.98 1015 10 16 N/A
8:53 pm 20:53 Mostly Sunny 78 25.6 69 20.6 74 74 VRB 3 6 29.99 1016 10 16 N/A
9:53 pm 21:53 Clear 75 23.9 70 21.1 84 84 N N/A 30.01 1016 10 16 N/A
10:53 pm 22:53 Clear 73 22.8 70 21.1 90 90 N N/A 30.04 1017 10 16 N/A
11:53 pm 23:53 Mostly Cloudy 71 21.7 70 21.1 96 96 N N/A 30.04 1017 10 16 N/A

Powered by AerisWeather